{"data":{"norad_id":65404,"epoch":"2026-09-20T16:50:49.494336Z","epoch_age_seconds":97309,"freshness":"FRESH","line1":"1 65404U 25192A   26263.70196174  .00008583  00000+0  26484-3 0  9992","line2":"2 65404  53.1579  52.7977 0000717  93.0946 267.0138 15.34401827 59156","mean_motion":15.34401827,"eccentricity":7.17e-5,"inclination_deg":53.1579,"raan_deg":52.7977,"arg_perigee_deg":93.0946,"mean_anomaly_deg":267.0138,"bstar":0.00026484,"rev_number":5915,"period_min":93.847646337559,"perigee_km":462.2073221276,"apogee_km":463.18829783935,"semimajor_km":6840.8348099835,"source":"CELESTRAK","updated_at":"2026-09-21T09:00:35.602244Z"}}